SWA512 KMEM-KATL

Flight info

Callsign SWA512
Flight time 0h 52m
Altitude 35000
Route BBKNG7 KERMI HUTCC KNSAW RUSSA GLAVN1
Aircraft B738/M-SDE2E3FGHIRWXY/LB1

Departure

Time 2026-05-04 22:19
Airport Memphis International Airport (KMEM)

Arrival

Time 2026-05-04 23:11
Airport Hartsfield Jackson Atlanta International Airport (KATL)
Time Latitude Longitude Altitude Speed Heading
2026-05-04 21:56 35.04308 -89.97911 297 ft 0 kts 240°
2026-05-04 22:06 35.04310 -89.97905 310 ft 2 kts 239°
2026-05-04 22:06 35.04319 -89.97887 310 ft 2 kts 240°
2026-05-04 22:06 35.04327 -89.97870 307 ft 2 kts 240°
2026-05-04 22:06 35.04335 -89.97852 308 ft 2 kts 238°
2026-05-04 22:07 35.04345 -89.97836 307 ft 2 kts 192°
2026-05-04 22:07 35.04348 -89.97835 308 ft 0 kts 177°
2026-05-04 22:10 35.04308 -89.97836 310 ft 8 kts 181°
2026-05-04 22:10 35.04249 -89.97836 311 ft 9 kts 180°
2026-05-04 22:11 35.04198 -89.97801 313 ft 9 kts 114°
2026-05-04 22:11 35.04212 -89.97748 313 ft 7 kts 33°
2026-05-04 22:11 35.04292 -89.97743 310 ft 22 kts 360°
2026-05-04 22:11 35.04494 -89.97747 304 ft 35 kts 359°
2026-05-04 22:12 35.04753 -89.97754 294 ft 40 kts 359°
2026-05-04 22:12 35.05019 -89.97760 285 ft 33 kts 358°
2026-05-04 22:12 35.05211 -89.97763 283 ft 25 kts 359°
2026-05-04 22:12 35.05355 -89.97776 283 ft 15 kts 352°
2026-05-04 22:13 35.05379 -89.97779 283 ft 0 kts 354°
2026-05-04 22:13 35.05380 -89.97779 283 ft 3 kts 354°
2026-05-04 22:13 35.05431 -89.97762 282 ft 12 kts 42°
2026-05-04 22:13 35.05443 -89.97729 282 ft 0 kts 82°
2026-05-04 22:18 35.05443 -89.97728 282 ft 2 kts 83°
2026-05-04 22:18 35.05440 -89.97659 283 ft 11 kts 111°
2026-05-04 22:18 35.05351 -89.97616 284 ft 24 kts 178°
2026-05-04 22:18 35.04918 -89.97608 289 ft 100 kts 179°
2026-05-04 22:19 35.04011 -89.97588 334 ft 161 kts 180°
2026-05-04 22:19 35.02808 -89.97558 953 ft 179 kts 181°
2026-05-04 22:19 35.01506 -89.97529 1837 ft 187 kts 181°
2026-05-04 22:19 35.00210 -89.97476 2615 ft 199 kts 182°
2026-05-04 22:20 34.98746 -89.97349 2922 ft 221 kts 171°
2026-05-04 22:20 34.97259 -89.96768 3453 ft 230 kts 163°
2026-05-04 22:20 34.95734 -89.96052 3921 ft 238 kts 162°
2026-05-04 22:20 34.94321 -89.94999 4574 ft 244 kts 140°
2026-05-04 22:21 34.93315 -89.93286 5087 ft 257 kts 118°
2026-05-04 22:21 34.92856 -89.91154 5636 ft 264 kts 98°
2026-05-04 22:21 34.92749 -89.88908 6208 ft 269 kts 96°
2026-05-04 22:21 34.92657 -89.86608 6662 ft 272 kts 95°
2026-05-04 22:22 34.92560 -89.84301 7216 ft 275 kts 95°
2026-05-04 22:22 34.92456 -89.81895 7482 ft 292 kts 96°
2026-05-04 22:22 34.92338 -89.79379 8025 ft 301 kts 96°
2026-05-04 22:22 34.92217 -89.76842 8865 ft 300 kts 95°
2026-05-04 22:23 34.92095 -89.74285 9625 ft 305 kts 95°
2026-05-04 22:23 34.91976 -89.71796 10283 ft 309 kts 95°
2026-05-04 22:23 34.91845 -89.69114 10573 ft 327 kts 95°
2026-05-04 22:23 34.91703 -89.66250 10725 ft 349 kts 95°
2026-05-04 22:24 34.91571 -89.63205 10875 ft 371 kts 93°
2026-05-04 22:24 34.91535 -89.59977 10998 ft 391 kts 91°
2026-05-04 22:24 34.91546 -89.56599 11190 ft 406 kts 90°
2026-05-04 22:24 34.91566 -89.53126 11614 ft 413 kts 90°
2026-05-04 22:25 34.91581 -89.49599 12079 ft 419 kts 91°
2026-05-04 22:25 34.91587 -89.46047 12709 ft 420 kts 91°
2026-05-04 22:25 34.91586 -89.42470 13215 ft 425 kts 91°
2026-05-04 22:25 34.91580 -89.38853 13697 ft 429 kts 91°
2026-05-04 22:26 34.91570 -89.35211 14210 ft 431 kts 90°
2026-05-04 22:26 34.91559 -89.31541 14689 ft 434 kts 90°
2026-05-04 22:26 34.91548 -89.27853 15166 ft 437 kts 90°
2026-05-04 22:26 34.91535 -89.24136 15656 ft 440 kts 90°
2026-05-04 22:27 34.91448 -89.20400 16107 ft 443 kts 96°
2026-05-04 22:27 34.90896 -89.16691 16562 ft 446 kts 103°
2026-05-04 22:27 34.90165 -89.12999 16979 ft 450 kts 103°
2026-05-04 22:27 34.89454 -89.09271 17391 ft 454 kts 102°
2026-05-04 22:28 34.88774 -89.05509 17838 ft 456 kts 102°
2026-05-04 22:28 34.88117 -89.01733 18297 ft 457 kts 101°
2026-05-04 22:28 34.87466 -88.97920 18610 ft 462 kts 101°
2026-05-04 22:28 34.86822 -88.94126 18921 ft 466 kts 101°
2026-05-04 22:29 34.86166 -88.90251 19288 ft 468 kts 101°
2026-05-04 22:29 34.85506 -88.86371 19719 ft 468 kts 101°
2026-05-04 22:29 34.84842 -88.82483 20158 ft 468 kts 101°
2026-05-04 22:29 34.84177 -88.78606 20660 ft 468 kts 101°
2026-05-04 22:30 34.83512 -88.74740 21156 ft 467 kts 101°
2026-05-04 22:30 34.82846 -88.70877 21651 ft 466 kts 101°
2026-05-04 22:30 34.82181 -88.67027 22178 ft 465 kts 101°
2026-05-04 22:30 34.81515 -88.63182 22699 ft 464 kts 101°
2026-05-04 22:31 34.80850 -88.59345 23235 ft 462 kts 101°
2026-05-04 22:31 34.80186 -88.55526 23727 ft 461 kts 101°
2026-05-04 22:31 34.79523 -88.51719 24185 ft 459 kts 101°
2026-05-04 22:31 34.78862 -88.47927 24646 ft 458 kts 101°
2026-05-04 22:32 34.78201 -88.44145 25117 ft 456 kts 101°
2026-05-04 22:32 34.77541 -88.40376 25608 ft 454 kts 101°
2026-05-04 22:32 34.76884 -88.36632 26080 ft 452 kts 101°
2026-05-04 22:32 34.76229 -88.32905 26577 ft 450 kts 101°
2026-05-04 22:33 34.75576 -88.29198 27078 ft 447 kts 101°
2026-05-04 22:33 34.74926 -88.25513 27585 ft 444 kts 101°
2026-05-04 22:33 34.74280 -88.21850 28103 ft 441 kts 101°
2026-05-04 22:33 34.73636 -88.18214 28631 ft 438 kts 101°
2026-05-04 22:34 34.73000 -88.14611 29165 ft 434 kts 100°
2026-05-04 22:34 34.72454 -88.11021 29713 ft 430 kts 98°
2026-05-04 22:34 34.71981 -88.07453 30223 ft 425 kts 97°
2026-05-04 22:34 34.71532 -88.03918 30686 ft 421 kts 97°
2026-05-04 22:35 34.71085 -88.00402 30974 ft 422 kts 97°
2026-05-04 22:35 34.70148 -87.93232 31088 ft 437 kts 97°
2026-05-04 22:36 34.69150 -87.85837 31216 ft 450 kts 98°
2026-05-04 22:36 34.68287 -87.79529 31319 ft 461 kts 98°
2026-05-04 22:37 34.67220 -87.71770 31552 ft 469 kts 98°
2026-05-04 22:37 34.66502 -87.66562 31739 ft 474 kts 98°
2026-05-04 22:37 34.66134 -87.63898 31882 ft 475 kts 98°
2026-05-04 22:37 34.65585 -87.59932 32090 ft 476 kts 98°
2026-05-04 22:38 34.65034 -87.55959 32298 ft 478 kts 98°
2026-05-04 22:38 34.64480 -87.51979 32511 ft 479 kts 98°
2026-05-04 22:38 34.63924 -87.47981 32715 ft 480 kts 98°
2026-05-04 22:38 34.63365 -87.43984 32929 ft 481 kts 98°
2026-05-04 22:39 34.62767 -87.39973 33001 ft 486 kts 100°
2026-05-04 22:39 34.61267 -87.31881 33012 ft 497 kts 102°
2026-05-04 22:40 34.59695 -87.23692 33026 ft 505 kts 102°
2026-05-04 22:40 34.58149 -87.15354 33027 ft 507 kts 102°
2026-05-04 22:41 34.56624 -87.07007 33032 ft 507 kts 101°
2026-05-04 22:41 34.55204 -86.98650 33024 ft 505 kts 101°
2026-05-04 22:42 34.53632 -86.90373 33029 ft 502 kts 105°
2026-05-04 22:42 34.52636 -86.86315 33031 ft 502 kts 107°
2026-05-04 22:43 34.49261 -86.73506 33026 ft 499 kts 107°
2026-05-04 22:43 34.47256 -86.65787 32708 ft 502 kts 107°
2026-05-04 22:43 34.46221 -86.61755 32312 ft 500 kts 107°
2026-05-04 22:44 34.45194 -86.57740 31927 ft 497 kts 107°
2026-05-04 22:44 34.44174 -86.53749 31546 ft 496 kts 107°
2026-05-04 22:44 34.43153 -86.49763 31175 ft 496 kts 107°
2026-05-04 22:44 34.42129 -86.45771 30781 ft 496 kts 107°
2026-05-04 22:45 34.41101 -86.41774 30369 ft 497 kts 107°
2026-05-04 22:45 34.39053 -86.33830 29489 ft 498 kts 107°
2026-05-04 22:45 34.38018 -86.29830 29010 ft 498 kts 107°
2026-05-04 22:46 34.36983 -86.25833 28558 ft 498 kts 107°
2026-05-04 22:46 34.35945 -86.21831 28105 ft 498 kts 107°
2026-05-04 22:46 34.34906 -86.17832 27663 ft 499 kts 107°
2026-05-04 22:46 34.33862 -86.13820 27216 ft 500 kts 107°
2026-05-04 22:47 34.32816 -86.09805 26766 ft 502 kts 108°
2026-05-04 22:47 34.31763 -86.05769 26252 ft 504 kts 108°
2026-05-04 22:47 34.30704 -86.01718 25771 ft 506 kts 108°
2026-05-04 22:47 34.29641 -85.97654 25296 ft 507 kts 108°
2026-05-04 22:48 34.28576 -85.93591 24818 ft 504 kts 108°
2026-05-04 22:48 34.27523 -85.89580 24348 ft 497 kts 108°
2026-05-04 22:48 34.26483 -85.85623 23883 ft 491 kts 108°
2026-05-04 22:48 34.25450 -85.81701 23402 ft 489 kts 108°
2026-05-04 22:49 34.24420 -85.77793 22862 ft 486 kts 108°
2026-05-04 22:49 34.23393 -85.73905 22331 ft 484 kts 108°
2026-05-04 22:49 34.22372 -85.70045 21805 ft 481 kts 108°
2026-05-04 22:49 34.21358 -85.66213 21285 ft 477 kts 108°
2026-05-04 22:50 34.20349 -85.62408 20791 ft 474 kts 108°
2026-05-04 22:50 34.19346 -85.58632 20294 ft 470 kts 108°
2026-05-04 22:50 34.18352 -85.54892 19809 ft 466 kts 108°
2026-05-04 22:50 34.17364 -85.51181 19334 ft 462 kts 108°
2026-05-04 22:51 34.16384 -85.47506 18858 ft 458 kts 108°
2026-05-04 22:51 34.15408 -85.43853 18402 ft 455 kts 108°
2026-05-04 22:51 34.14441 -85.40235 17875 ft 451 kts 108°
2026-05-04 22:51 34.13479 -85.36643 17357 ft 448 kts 108°
2026-05-04 22:52 34.12525 -85.33083 16825 ft 444 kts 108°
2026-05-04 22:52 34.11578 -85.29555 16320 ft 440 kts 108°
2026-05-04 22:52 34.10637 -85.26051 15833 ft 437 kts 108°
2026-05-04 22:52 34.09705 -85.22587 15331 ft 433 kts 108°
2026-05-04 22:53 34.08779 -85.19147 14853 ft 429 kts 108°
2026-05-04 22:53 34.07861 -85.15745 14385 ft 425 kts 108°
2026-05-04 22:53 34.06951 -85.12374 14109 ft 422 kts 108°
2026-05-04 22:53 34.06050 -85.09042 14045 ft 426 kts 108°
2026-05-04 22:54 34.04946 -85.05732 14006 ft 427 kts 121°
2026-05-04 22:54 34.03091 -85.02962 14029 ft 424 kts 139°
2026-05-04 22:54 34.00845 -85.00660 14042 ft 425 kts 141°
2026-05-04 22:54 33.98568 -84.98390 14042 ft 424 kts 141°
2026-05-04 22:55 33.96312 -84.96108 14038 ft 423 kts 139°
2026-05-04 22:55 33.94414 -84.93409 14033 ft 424 kts 123°
2026-05-04 22:55 33.92923 -84.90341 14031 ft 424 kts 118°
2026-05-04 22:55 33.91552 -84.87198 14039 ft 425 kts 117°
2026-05-04 22:56 33.90209 -84.84022 14036 ft 426 kts 117°
2026-05-04 22:56 33.88874 -84.80841 14029 ft 426 kts 117°
2026-05-04 22:56 33.87542 -84.77652 14026 ft 426 kts 117°
2026-05-04 22:56 33.86214 -84.74461 13867 ft 427 kts 117°
2026-05-04 22:57 33.84890 -84.71276 13605 ft 424 kts 117°
2026-05-04 22:57 33.83577 -84.68115 13340 ft 421 kts 116°
2026-05-04 22:57 33.82269 -84.64966 13084 ft 420 kts 116°
2026-05-04 22:57 33.80967 -84.61830 12828 ft 418 kts 116°
2026-05-04 22:58 33.79669 -84.58708 12569 ft 417 kts 116°
2026-05-04 22:58 33.78374 -84.55598 12239 ft 417 kts 116°
2026-05-04 22:58 33.77515 -84.53536 11984 ft 418 kts 116°
2026-05-04 22:58 33.76213 -84.50414 11616 ft 415 kts 116°
2026-05-04 22:59 33.74944 -84.47329 11243 ft 409 kts 114°
2026-05-04 22:59 33.74004 -84.44138 10854 ft 405 kts 102°
2026-05-04 22:59 33.73531 -84.40806 10412 ft 404 kts 96°
2026-05-04 22:59 33.73295 -84.37456 9935 ft 403 kts 91°
2026-05-04 23:00 33.73244 -84.34101 9415 ft 400 kts 89°
2026-05-04 23:00 33.73257 -84.30788 8898 ft 394 kts 88°
2026-05-04 23:00 33.73282 -84.27528 8389 ft 387 kts 88°
2026-05-04 23:00 33.73297 -84.24340 7878 ft 376 kts 89°
2026-05-04 23:01 33.73303 -84.21246 7383 ft 366 kts 89°
2026-05-04 23:01 33.73306 -84.18237 7053 ft 353 kts 89°
2026-05-04 23:01 33.73308 -84.15372 6995 ft 333 kts 89°
2026-05-04 23:01 33.73308 -84.12683 6987 ft 313 kts 89°
2026-05-04 23:02 33.73311 -84.10107 6750 ft 304 kts 89°
2026-05-04 23:02 33.73314 -84.07595 6506 ft 297 kts 89°
2026-05-04 23:02 33.73316 -84.05137 6163 ft 292 kts 89°
2026-05-04 23:02 33.73220 -84.02726 5802 ft 286 kts 102°
2026-05-04 23:03 33.72396 -84.00623 5462 ft 275 kts 130°
2026-05-04 23:03 33.70926 -83.99272 5109 ft 261 kts 159°
2026-05-04 23:03 33.69213 -83.98916 4771 ft 244 kts 188°
2026-05-04 23:03 33.67682 -83.99593 4407 ft 231 kts 220°
2026-05-04 23:04 33.66673 -84.01010 4089 ft 218 kts 242°
2026-05-04 23:04 33.66064 -84.02582 3986 ft 199 kts 261°
2026-05-04 23:04 33.65896 -84.04145 3996 ft 185 kts 264°
2026-05-04 23:04 33.65738 -84.05667 4005 ft 183 kts 264°
2026-05-04 23:05 33.65586 -84.07182 3991 ft 182 kts 266°
2026-05-04 23:05 33.65517 -84.08701 3993 ft 184 kts 269°
2026-05-04 23:05 33.65474 -84.10234 4018 ft 184 kts 269°
2026-05-04 23:05 33.65439 -84.11771 4001 ft 184 kts 270°
2026-05-04 23:06 33.65403 -84.13307 4008 ft 184 kts 269°
2026-05-04 23:06 33.65367 -84.14843 3997 ft 184 kts 269°
2026-05-04 23:06 33.65330 -84.16374 3998 ft 183 kts 269°
2026-05-04 23:06 33.65292 -84.17903 3984 ft 184 kts 269°
2026-05-04 23:07 33.65255 -84.19426 4013 ft 183 kts 269°
2026-05-04 23:07 33.65219 -84.20967 4001 ft 186 kts 269°
2026-05-04 23:07 33.65183 -84.22533 3945 ft 192 kts 269°
2026-05-04 23:07 33.65158 -84.24115 3854 ft 187 kts 271°
2026-05-04 23:08 33.65132 -84.25739 3467 ft 197 kts 269°
2026-05-04 23:08 33.65092 -84.27381 3137 ft 198 kts 269°
2026-05-04 23:08 33.65049 -84.28979 2930 ft 187 kts 268°
2026-05-04 23:08 33.64977 -84.30511 2805 ft 182 kts 269°
2026-05-04 23:09 33.64934 -84.31998 2628 ft 178 kts 269°
2026-05-04 23:09 33.64935 -84.33472 2406 ft 176 kts 272°
2026-05-04 23:09 33.64947 -84.34952 2117 ft 178 kts 270°
2026-05-04 23:09 33.64953 -84.36419 1751 ft 173 kts 270°
2026-05-04 23:10 33.64953 -84.37822 1621 ft 165 kts 270°
2026-05-04 23:10 33.64959 -84.39172 1359 ft 163 kts 267°
2026-05-04 23:10 33.64954 -84.40509 1111 ft 156 kts 268°
2026-05-04 23:10 33.64952 -84.41770 1005 ft 134 kts 271°
2026-05-04 23:11 33.64940 -84.42591 1006 ft 69 kts 259°
2026-05-04 23:11 33.64856 -84.42836 1005 ft 1 kts 240°
2026-05-04 23:11 33.64855 -84.42837 1005 ft 0 kts 240°
2026-05-04 23:12 33.64855 -84.42838 1005 ft 1 kts 240°
2026-05-04 23:12 33.64791 -84.42876 1006 ft 17 kts 179°
2026-05-04 23:12 33.64656 -84.42862 1007 ft 23 kts 157°
2026-05-04 23:12 33.64552 -84.42833 1005 ft 8 kts 208°
2026-05-04 23:13 33.64543 -84.42876 1006 ft 10 kts 268°
2026-05-04 23:13 33.64541 -84.43009 1006 ft 20 kts 270°
2026-05-04 23:13 33.64542 -84.43211 1006 ft 27 kts 270°
2026-05-04 23:13 33.64522 -84.43405 1006 ft 19 kts 224°
2026-05-04 23:14 33.64406 -84.43394 1005 ft 15 kts 169°
2026-05-04 23:14 33.64313 -84.43385 1005 ft 4 kts 144°
2026-05-04 23:14 33.64301 -84.43343 1005 ft 8 kts 95°
2026-05-04 23:14 33.64300 -84.43323 1005 ft 0 kts 92°